Location: Potomac
(46.8816°N, 113.5795°W)
Time: 11:35:23
(UTC+00:00)

AO-91 - Pass Details

Date: 05 July 2022
Orbit: 450 x 797 km, 97.7° (Epoch: 09 August)

Event Time Altitude Azimuth Distance (km) Brightness Sun altitude
Rises 06:58:28 0° 5° (N) 2,496 ? -19.7°
Reaches altitude 10° 07:00:37 10° 357° (N) 1,600 ? -19.8°
Maximum altitude 07:03:44 36° 290° (WNW) 742 ? -19.9°
Enters shadow 07:04:41 29° 253° (WSW) 854 ? -19.9°
